Location: Newark
(43.4306°N, 0.3089°E)
Time: 14:23:48
(UTC+00:00)

Vanguard 1 Rocket - Pass Details

Date: 29 August 2019
Orbit: 651 x 4225 km, 34.3° (Epoch: 19 September)

Event Time Altitude Azimuth Distance (km) Brightness Sun altitude
Exits shadow 04:14:59 15° 232° (SW) 1,885 8.4 -11.7°
Maximum altitude 04:17:40 23° 190° (S) 1,687 8.5 -11.3°
Drops below altitude 10° 04:22:49 10° 139° (SE) 2,992 10.3 -10.5°
Sets 04:26:57 0° 127° (SE) 4,483 11.4 -9.8°
